Santee, CA

2:29 PM PST on December 12, 2019 (GMT -0800)
Gillespie

Weather History for KSEE - November, 2019

Change the Weather History Date:

Saturday, November 16, 2019

  Actual Average Record
Temperature  
Mean Temperature 66 °F -  
Max Temperature 82 °F 75 °F 89 °F (2002)
Min Temperature 50 °F 45 °F 34 °F (1980)
Cooling Degree Days 1    
Growing Degree Days 16 (Base 50)    
Moisture  
Dew Point 51 °F    
Average Humidity 84    
Maximum Humidity 94    
Minimum Humidity 26    
Precipitation  
Precipitation 0.00 in - - ()
Sea Level Pressure  
Sea Level Pressure 29.97 in    
Wind  
Wind Speed 2 mph ()    
Max Wind Speed 9 mph    
Max Gust Speed -    
Visibility 9.1 miles    
Events      
Averages and records for this station are not official NWS values.
T = Trace of Precipitation, MM = Missing Value Source: Averaged Metar Reports

Daily Weather History Graph

Daily Weather History Graph

Search for Another Location

Airport or City:

Astronomy

Nov. 16, 2019 Rise Set
Actual Time 6:18 AM PST 4:46 PM PST
Civil Twilight 5:52 AM PST 5:12 PM PST
Nautical Twilight 5:22 AM PST 5:42 PM PST
Astronomical Twilight 4:53 AM PST 6:11 PM PST
Moon 8:28 PM PST (11/16) 10:11 AM PST (11/16)
Length of Visible Light 11h 19m
Length of Day
10h 27m
Waning Gibbous, 81% of the Moon is Illuminated
Nov 16
Waning Gibbous
Nov 19
Last Quarter
Nov 26
New
Dec 3
First Quarter
Dec 11
Full

Hourly Weather History & Observations

Time (PST) Temp. Dew Point Humidity Pressure Visibility Wind Dir Wind Speed Gust Speed Precip Events Conditions
12:15 AM 57.2 °F 53.6 °F 88% 29.99 in 10.0 mi WNW 5.8 mph - N/A   Clear
12:35 AM 57.2 °F 53.6 °F 88% 29.99 in 10.0 mi WNW 3.5 mph - N/A   Clear
12:55 AM 57.2 °F 53.6 °F 88% 29.99 in 10.0 mi Calm Calm - N/A   Clear
1:15 AM 57.2 °F 53.6 °F 88% 29.99 in 10.0 mi Calm Calm - N/A   Clear
1:35 AM 55.4 °F 51.8 °F 88% 29.98 in 10.0 mi WNW 4.6 mph - N/A   Clear
1:55 AM 53.6 °F 51.8 °F 94% 29.98 in 10.0 mi WNW 4.6 mph - N/A   Clear
2:15 AM 53.6 °F 51.8 °F 94% 29.98 in 10.0 mi West 6.9 mph - N/A   Clear
2:35 AM 53.6 °F 51.8 °F 94% 29.98 in 10.0 mi Calm Calm - N/A   Clear
2:55 AM 53.6 °F 51.8 °F 94% 29.97 in 10.0 mi North - - N/A   Clear
3:15 AM 53.6 °F 51.8 °F 94% 29.96 in 10.0 mi Calm Calm - N/A   Clear
3:35 AM 53.6 °F 50.0 °F 88% 29.96 in 10.0 mi Calm Calm - N/A   Clear
3:55 AM 53.6 °F 50.0 °F 88% 29.95 in 10.0 mi Calm Calm - N/A   Clear
4:15 AM 51.8 °F 50.0 °F 94% 29.95 in 10.0 mi Calm Calm - N/A   Clear
4:35 AM 51.8 °F 50.0 °F 94% 29.94 in 10.0 mi Calm Calm - N/A   Clear
4:55 AM 50.0 °F 48.2 °F 94% 29.95 in 10.0 mi NW 4.6 mph - N/A   Clear
5:15 AM 50.0 °F 48.2 °F 94% 29.95 in 10.0 mi North - - N/A   Clear
5:35 AM 50.0 °F 48.2 °F 94% 29.95 in 10.0 mi Calm Calm - N/A   Clear
5:55 AM 50.0 °F 48.2 °F 94% 29.96 in 10.0 mi Calm Calm - N/A   Clear
6:15 AM 50.0 °F 48.2 °F 94% 29.96 in 9.0 mi Calm Calm - N/A   Clear
6:35 AM 50.0 °F 48.2 °F 94% 29.97 in 10.0 mi North - - N/A   Clear
6:47 AM 50.0 °F 48.2 °F 94% 29.98 in 10.0 mi Calm Calm - N/A   Clear
6:55 AM 50.0 °F 48.2 °F 94% 29.97 in 9.0 mi Calm Calm - N/A   Clear
7:15 AM 51.8 °F 48.2 °F 88% 29.98 in 10.0 mi Calm Calm - N/A   Clear
7:47 AM 53.6 °F 50.0 °F 88% 30.00 in 10.0 mi Calm Calm - N/A   Clear
8:47 AM 59.0 °F 51.8 °F 77% 30.00 in 10.0 mi Calm Calm - N/A   Clear
9:47 AM 64.4 °F 50.0 °F 59% 30.00 in 10.0 mi WNW 6.9 mph - N/A   Clear
10:47 AM 71.6 °F 53.6 °F 53% 29.98 in 10.0 mi West 5.8 mph - N/A   Clear
1:47 PM 82.4 °F 46.4 °F 28% 29.90 in 10.0 mi West 4.6 mph - N/A   Clear
2:47 PM 82.4 °F 44.6 °F 26% 29.91 in 10.0 mi West 9.2 mph - N/A   Clear
3:47 PM 73.4 °F 57.2 °F 57% 29.93 in 10.0 mi SSW 5.8 mph - N/A   Clear
4:47 PM 68.0 °F 57.2 °F 68% 29.96 in 10.0 mi WNW 9.2 mph - N/A   Clear
5:47 PM 64.4 °F 57.2 °F 77% 29.98 in 5.0 mi Calm Calm - N/A   Clear
6:47 PM 64.4 °F 57.2 °F 77% 29.99 in 9.0 mi Calm Calm - N/A   Clear
8:47 PM 59.0 °F 53.6 °F 82% 29.99 in 9.0 mi Calm Calm - N/A   Clear
9:15 PM 57.2 °F 53.6 °F 88% 29.98 in 7.0 mi Calm Calm - N/A   Clear
9:35 PM 55.4 °F 51.8 °F 88% 29.97 in 6.0 mi West 3.5 mph - N/A   Clear
9:55 PM 57.2 °F 53.6 °F 88% 29.98 in 7.0 mi Calm Calm - N/A   Clear
10:15 PM 57.2 °F 51.8 °F 82% 29.98 in 7.0 mi NW 3.5 mph - N/A   Clear
10:35 PM 57.2 °F 53.6 °F 88% 29.98 in 7.0 mi Calm Calm - N/A   Clear
10:55 PM 55.4 °F 51.8 °F 88% 29.98 in 6.0 mi North - - N/A   Clear
11:15 PM 55.4 °F 51.8 °F 88% 29.98 in 6.0 mi Calm Calm - N/A   Clear
11:35 PM 55.4 °F 51.8 °F 88% 29.98 in 7.0 mi Calm Calm - N/A   Clear
11:55 PM 53.6 °F 51.8 °F 94% 29.98 in 7.0 mi North - - N/A   Clear